Time,TemperatureF,DewpointF,PressureIn,WindDirection,WindDirectionDegrees,WindSpeedMPH,WindSpeedGustMPH,Humidity,HourlyPrecipIn,Conditions,Clouds,dailyrainin,SoftwareType,DateUTC
2013-08-24 00:08:00,53.6,50.7,30.16,East,90,0.0,-999.0,90,-99.99,,,0.00,Acu-Link.com,2013-08-24 04:08:00,
2013-08-24 00:23:00,52.5,49.9,30.16,NNW,337,0.0,-999.0,91,-99.99,,,0.00,Acu-Link.com,2013-08-24 04:23:00,
2013-08-24 00:39:00,52.0,49.5,30.16,SSE,157,0.0,-999.0,91,-99.99,,,0.00,Acu-Link.com,2013-08-24 04:39:00,
2013-08-24 00:54:00,51.3,49.1,30.17,SW,225,1.7,-999.0,92,-99.99,,,0.00,Acu-Link.com,2013-08-24 04:54:00,
2013-08-24 01:09:00,51.1,49.1,30.18,ENE,67,0.0,-999.0,93,-99.99,,,0.00,Acu-Link.com,2013-08-24 05:09:00,
2013-08-24 01:25:00,50.5,48.8,30.17,NE,45,1.1,-999.0,94,-99.99,,,0.00,Acu-Link.com,2013-08-24 05:25:00,
2013-08-24 01:40:00,50.0,48.3,30.18,North,0,0.0,-999.0,94,-99.99,,,0.00,Acu-Link.com,2013-08-24 05:40:00,
2013-08-24 01:55:00,49.5,48.1,30.18,North,0,0.0,-999.0,95,-99.99,,,0.00,Acu-Link.com,2013-08-24 05:55:00,
2013-08-24 02:11:00,48.9,47.5,30.18,North,0,0.0,-999.0,95,-99.99,,,0.00,Acu-Link.com,2013-08-24 06:11:00,
2013-08-24 02:26:00,48.6,47.5,30.19,NNW,337,0.0,-999.0,96,-99.99,,,0.00,Acu-Link.com,2013-08-24 06:26:00,
2013-08-24 02:41:00,48.4,47.3,30.20,NNW,337,0.0,-999.0,96,-99.99,,,0.00,Acu-Link.com,2013-08-24 06:41:00,
2013-08-24 02:56:00,48.2,47.1,30.20,SE,135,0.0,-999.0,96,-99.99,,,0.00,Acu-Link.com,2013-08-24 06:56:00,
2013-08-24 03:12:00,47.7,46.9,30.21,NNE,22,0.0,-999.0,97,-99.99,,,0.00,Acu-Link.com,2013-08-24 07:12:00,
2013-08-24 03:27:00,47.3,46.2,30.21,NNE,22,0.0,-999.0,96,-99.99,,,0.00,Acu-Link.com,2013-08-24 07:27:00,
2013-08-24 03:42:00,46.9,45.8,30.22,ESE,112,0.0,-999.0,96,-99.99,,,0.00,Acu-Link.com,2013-08-24 07:42:00,
2013-08-24 03:58:00,46.6,45.8,30.22,NNE,22,0.0,-999.0,97,-99.99,,,0.00,Acu-Link.com,2013-08-24 07:58:00,
2013-08-24 04:13:00,46.6,45.5,30.22,NE,45,0.0,-999.0,96,-99.99,,,0.00,Acu-Link.com,2013-08-24 08:13:00,
2013-08-24 04:29:00,46.4,45.3,30.23,NE,45,0.0,-999.0,96,-99.99,,,0.00,Acu-Link.com,2013-08-24 08:29:00,
2013-08-24 04:44:00,46.0,45.2,30.23,NW,315,0.0,-999.0,97,-99.99,,,0.00,Acu-Link.com,2013-08-24 08:44:00,
2013-08-24 04:59:00,46.0,45.2,30.24,SE,135,0.0,-999.0,97,-99.99,,,0.00,Acu-Link.com,2013-08-24 08:59:00,
2013-08-24 05:14:00,45.7,44.9,30.25,SSE,157,0.0,-999.0,97,-99.99,,,0.00,Acu-Link.com,2013-08-24 09:14:00,
2013-08-24 05:29:00,45.5,44.7,30.25,SSE,157,0.0,-999.0,97,-99.99,,,0.00,Acu-Link.com,2013-08-24 09:29:00,
2013-08-24 05:44:00,45.1,44.3,30.26,NNE,22,0.0,-999.0,97,-99.99,,,0.00,Acu-Link.com,2013-08-24 09:44:00,
2013-08-24 05:59:00,44.8,44.0,30.27,NNE,22,0.0,-999.0,97,-99.99,,,0.00,Acu-Link.com,2013-08-24 09:59:00,
2013-08-24 06:14:00,44.4,43.6,30.28,NW,315,0.0,-999.0,97,-99.99,,,0.00,Acu-Link.com,2013-08-24 10:14:00,
2013-08-24 06:30:00,44.2,43.4,30.29,NNE,22,0.0,-999.0,97,-99.99,,,0.00,Acu-Link.com,2013-08-24 10:30:00,
2013-08-24 06:45:00,44.8,44.3,30.30,ESE,112,0.0,-999.0,98,-99.99,,,0.00,Acu-Link.com,2013-08-24 10:45:00,
2013-08-24 07:00:00,45.1,44.6,30.30,NNW,337,0.0,-999.0,98,-99.99,,,0.00,Acu-Link.com,2013-08-24 11:00:00,
2013-08-24 07:16:00,45.9,45.4,30.31,NE,45,0.0,-999.0,98,-99.99,,,0.00,Acu-Link.com,2013-08-24 11:16:00,
2013-08-24 07:31:00,47.3,46.8,30.31,NNW,337,2.7,-999.0,98,-99.99,,,0.00,Acu-Link.com,2013-08-24 11:31:00,
2013-08-24 07:46:00,48.6,48.1,30.32,NNE,22,2.2,-999.0,98,-99.99,,,0.00,Acu-Link.com,2013-08-24 11:46:00,
2013-08-24 08:01:00,50.2,49.7,30.32,NNE,22,2.2,-999.0,98,-99.99,,,0.00,Acu-Link.com,2013-08-24 12:01:00,
2013-08-24 08:16:00,52.0,50.9,30.32,NNE,22,1.7,-999.0,96,-99.99,,,0.00,Acu-Link.com,2013-08-24 12:16:00,
2013-08-24 08:32:00,53.4,51.7,30.33,NNE,22,2.2,-999.0,94,-99.99,,,0.00,Acu-Link.com,2013-08-24 12:32:00,
2013-08-24 08:47:00,54.9,52.9,30.32,NNE,22,1.7,-999.0,93,-99.99,,,0.00,Acu-Link.com,2013-08-24 12:47:00,
2013-08-24 09:02:00,56.5,53.6,30.33,NNW,337,1.7,-999.0,90,-99.99,,,0.00,Acu-Link.com,2013-08-24 13:02:00,
2013-08-24 09:17:00,58.1,54.2,30.33,NNE,22,2.7,-999.0,87,-99.99,,,0.00,Acu-Link.com,2013-08-24 13:17:00,
2013-08-24 09:33:00,59.7,54.5,30.33,NE,45,1.7,-999.0,83,-99.99,,,0.00,Acu-Link.com,2013-08-24 13:33:00,
2013-08-24 09:48:00,61.2,55.3,30.33,NW,315,1.7,-999.0,81,-99.99,,,0.00,Acu-Link.com,2013-08-24 13:48:00,
2013-08-24 10:03:00,62.4,54.7,30.32,NNW,337,1.7,-999.0,76,-99.99,,,0.00,Acu-Link.com,2013-08-24 14:03:00,
2013-08-24 10:18:00,63.5,53.9,30.33,ESE,112,0.0,-999.0,71,-99.99,,,0.00,Acu-Link.com,2013-08-24 14:18:00,
2013-08-24 10:33:00,64.6,51.7,30.32,SSE,157,1.1,-999.0,63,-99.99,,,0.00,Acu-Link.com,2013-08-24 14:33:00,
2013-08-24 10:49:00,65.7,51.9,30.32,SE,135,0.0,-999.0,61,-99.99,,,0.00,Acu-Link.com,2013-08-24 14:49:00,
2013-08-24 11:04:00,66.6,51.8,30.32,East,90,0.0,-999.0,59,-99.99,,,0.00,Acu-Link.com,2013-08-24 15:04:00,
2013-08-24 11:19:00,68.0,51.7,30.32,SW,225,2.2,-999.0,56,-99.99,,,0.00,Acu-Link.com,2013-08-24 15:19:00,
2013-08-24 11:35:00,68.7,52.4,30.32,SSE,157,1.1,-999.0,56,-99.99,,,0.00,Acu-Link.com,2013-08-24 15:35:00,
2013-08-24 11:50:00,69.1,52.2,30.32,NE,45,0.0,-999.0,55,-99.99,,,0.00,Acu-Link.com,2013-08-24 15:50:00,
2013-08-24 12:05:00,69.3,51.4,30.32,SSE,157,1.1,-999.0,53,-99.99,,,0.00,Acu-Link.com,2013-08-24 16:05:00,
2013-08-24 12:21:00,70.0,52.6,30.31,East,90,1.7,-999.0,54,-99.99,,,0.00,Acu-Link.com,2013-08-24 16:21:00,
2013-08-24 12:36:00,70.5,52.5,30.31,NE,45,1.1,-999.0,53,-99.99,,,0.00,Acu-Link.com,2013-08-24 16:36:00,
2013-08-24 12:51:00,71.8,51.0,30.31,NNE,22,3.2,-999.0,48,-99.99,,,0.00,Acu-Link.com,2013-08-24 16:51:00,
2013-08-24 13:06:00,73.2,53.4,30.31,ENE,67,0.0,-999.0,50,-99.99,,,0.00,Acu-Link.com,2013-08-24 17:06:00,
2013-08-24 13:22:00,72.7,51.9,30.30,NE,45,1.1,-999.0,48,-99.99,,,0.00,Acu-Link.com,2013-08-24 17:22:00,
2013-08-24 13:37:00,72.7,52.4,30.31,NNW,337,2.7,-999.0,49,-99.99,,,0.00,Acu-Link.com,2013-08-24 17:37:00,
2013-08-24 13:52:00,73.8,53.4,30.30,NE,45,1.7,-999.0,49,-99.99,,,0.00,Acu-Link.com,2013-08-24 17:52:00,
2013-08-24 14:08:00,74.5,53.5,30.31,NNW,337,1.7,-999.0,48,-99.99,,,0.00,Acu-Link.com,2013-08-24 18:08:00,
2013-08-24 14:23:00,74.3,50.3,30.30,North,0,1.7,-999.0,43,-99.99,,,0.00,Acu-Link.com,2013-08-24 18:23:00,
2013-08-24 14:38:00,76.1,50.7,30.30,East,90,0.0,-999.0,41,-99.99,,,0.00,Acu-Link.com,2013-08-24 18:38:00,
2013-08-24 14:53:00,74.5,51.1,30.29,East,90,1.1,-999.0,44,-99.99,,,0.00,Acu-Link.com,2013-08-24 18:53:00,
2013-08-24 15:09:00,74.5,49.9,30.29,West,270,1.1,-999.0,42,-99.99,,,0.00,Acu-Link.com,2013-08-24 19:09:00,
2013-08-24 15:24:00,75.7,50.3,30.29,ESE,112,0.0,-999.0,41,-99.99,,,0.00,Acu-Link.com,2013-08-24 19:24:00,
2013-08-24 15:39:00,74.3,52.2,30.29,South,180,0.0,-999.0,46,-99.99,,,0.00,Acu-Link.com,2013-08-24 19:39:00,
2013-08-24 15:55:00,79.2,51.4,30.29,SE,135,1.1,-999.0,38,-99.99,,,0.00,Acu-Link.com,2013-08-24 19:55:00,
2013-08-24 16:10:00,77.5,52.6,30.28,ESE,112,1.7,-999.0,42,-99.99,,,0.00,Acu-Link.com,2013-08-24 20:10:00,
2013-08-24 16:26:00,76.3,53.4,30.29,West,270,0.0,-999.0,45,-99.99,,,0.00,Acu-Link.com,2013-08-24 20:26:00,
2013-08-24 16:41:00,74.1,54.8,30.28,WSW,247,0.0,-999.0,51,-99.99,,,0.00,Acu-Link.com,2013-08-24 20:41:00,
2013-08-24 16:56:00,73.4,51.3,30.28,SSE,157,1.1,-999.0,46,-99.99,,,0.00,Acu-Link.com,2013-08-24 20:56:00,
2013-08-24 17:12:00,72.1,53.5,30.28,SW,225,0.0,-999.0,52,-99.99,,,0.00,Acu-Link.com,2013-08-24 21:12:00,
2013-08-24 17:27:00,71.8,52.7,30.28,SW,225,0.0,-999.0,51,-99.99,,,0.00,Acu-Link.com,2013-08-24 21:27:00,
2013-08-24 17:42:00,70.5,54.5,30.28,South,180,1.1,-999.0,57,-99.99,,,0.00,Acu-Link.com,2013-08-24 21:42:00,
2013-08-24 17:57:00,68.9,54.0,30.27,SW,225,1.7,-999.0,59,-99.99,,,0.00,Acu-Link.com,2013-08-24 21:57:00,
2013-08-24 18:13:00,67.1,52.7,30.28,South,180,1.7,-999.0,60,-99.99,,,0.00,Acu-Link.com,2013-08-24 22:13:00,
2013-08-24 18:28:00,66.2,53.2,30.28,SSE,157,2.2,-999.0,63,-99.99,,,0.00,Acu-Link.com,2013-08-24 22:28:00,
2013-08-24 18:43:00,65.7,53.6,30.28,SSE,157,1.7,-999.0,65,-99.99,,,0.00,Acu-Link.com,2013-08-24 22:43:00,
2013-08-24 18:58:00,64.9,52.4,30.28,South,180,1.7,-999.0,64,-99.99,,,0.00,Acu-Link.com,2013-08-24 22:58:00,
2013-08-24 19:14:00,64.4,52.0,30.29,SE,135,0.0,-999.0,64,-99.99,,,0.00,Acu-Link.com,2013-08-24 23:14:00,
2013-08-24 19:29:00,63.5,52.3,30.29,SSE,157,0.0,-999.0,67,-99.99,,,0.00,Acu-Link.com,2013-08-24 23:29:00,
2013-08-24 19:44:00,62.2,53.1,30.29,SW,225,0.0,-999.0,72,-99.99,,,0.00,Acu-Link.com,2013-08-24 23:44:00,
2013-08-24 20:00:00,61.2,52.5,30.30,SSW,202,0.0,-999.0,73,-99.99,,,0.00,Acu-Link.com,2013-08-25 00:00:00,
2013-08-24 20:15:00,60.3,53.8,30.30,SSE,157,0.0,-999.0,79,-99.99,,,0.00,Acu-Link.com,2013-08-25 00:15:00,
2013-08-24 20:30:00,59.2,53.7,30.30,NNE,22,0.0,-999.0,82,-99.99,,,0.00,Acu-Link.com,2013-08-25 00:30:00,
2013-08-24 20:45:00,58.3,53.8,30.31,North,0,0.0,-999.0,85,-99.99,,,0.00,Acu-Link.com,2013-08-25 00:45:00,
2013-08-24 21:01:00,57.4,52.9,30.32,SE,135,0.0,-999.0,85,-99.99,,,0.00,Acu-Link.com,2013-08-25 01:01:00,
2013-08-24 21:16:00,56.7,53.2,30.32,NNE,22,0.0,-999.0,88,-99.99,,,0.00,Acu-Link.com,2013-08-25 01:16:00,
2013-08-24 21:31:00,56.1,52.9,30.32,NNE,22,0.0,-999.0,89,-99.99,,,0.00,Acu-Link.com,2013-08-25 01:31:00,
2013-08-24 21:47:00,55.4,52.5,30.33,NNE,22,0.0,-999.0,90,-99.99,,,0.00,Acu-Link.com,2013-08-25 01:47:00,
2013-08-24 22:02:00,54.9,52.6,30.33,NNE,22,0.0,-999.0,92,-99.99,,,0.00,Acu-Link.com,2013-08-25 02:02:00,
2013-08-24 22:18:00,54.3,52.0,30.33,ESE,112,0.0,-999.0,92,-99.99,,,0.00,Acu-Link.com,2013-08-25 02:18:00,
2013-08-24 22:33:00,54.0,52.0,30.33,ESE,112,0.0,-999.0,93,-99.99,,,0.00,Acu-Link.com,2013-08-25 02:33:00,
2013-08-24 22:48:00,53.4,51.1,30.33,NNE,22,0.0,-999.0,92,-99.99,,,0.00,Acu-Link.com,2013-08-25 02:48:00,
2013-08-24 23:04:00,52.9,50.9,30.34,ESE,112,0.0,-999.0,93,-99.99,,,0.00,Acu-Link.com,2013-08-25 03:04:00,
2013-08-24 23:19:00,52.5,50.5,30.34,NE,45,0.0,-999.0,93,-99.99,,,0.00,Acu-Link.com,2013-08-25 03:19:00,
2013-08-24 23:34:00,52.2,50.5,30.34,NNE,22,0.0,-999.0,94,-99.99,,,0.00,Acu-Link.com,2013-08-25 03:34:00,
2013-08-24 23:50:00,51.8,50.1,30.33,ESE,112,0.0,-999.0,94,-99.99,,,0.00,Acu-Link.com,2013-08-25 03:50:00,